This demonstration page uses our WeatherBlox Daily Observations layout. Learn more.

Left ArrowRight Arrow

38.20091, -84.87328

Hourly Observations for January 8, 2020

Temp ( °F °C ) Dew Point ( °F °C ) Humidity (%) Winds ( mph kmh ) Pressure ( in mb ) Visibility ( mi km ) Precip ( " mm )
12:53 am 00:53 Clear 35 1.7 27 -2.8 72 72 SW 9 15 30.15 1021 10 16 0.00 0.00
1:53 am 01:53 Clear 37 2.8 27 -2.8 67 67 WSW 10 17 30.15 1021 10 16 0.00 0.00
2:53 am 02:53 Clear 36 2.2 26 -3.3 67 67 SW 12 19 30.16 1021 10 16 0.00 0.00
3:53 am 03:53 Mostly Cloudy 37 2.8 26 -3.3 65 65 WSW 10 17 30.16 1021 10 16 0.00 0.00
4:53 am 04:53 Clear 37 2.8 26 -3.3 65 65 WSW 7 11 30.18 1022 10 16 0.00 0.00
5:53 am 05:53 Clear 36 2.2 26 -3.3 67 67 WSW 8 13 30.20 1023 10 16 0.00 0.00
6:53 am 06:53 Clear 36 2.2 25 -3.9 64 64 WSW 8 13 30.24 1024 10 16 0.00 0.00
7:53 am 07:53 Clear 35 1.7 25 -3.9 67 67 WSW 7 11 30.27 1025 10 16 0.00 0.00
8:53 am 08:53 Sunny 37 2.8 24 -4.4 59 59 W 7 11 30.32 1027 10 16 0.00 0.00
9:53 am 09:53 undefined 38 3.3 22 -5.6 52 52 WNW 9 15 30.35 1028 N/A 0.00 0.00
10:28 am 10:28 Hazy 40 4.4 18 -7.8 41 41 WNW 12 19 30.39 1029 1 2 0.00 0.00
10:35 am 10:35 Sunny 40 4.4 18 -7.8 41 41 WNW 8 13 30.39 1029 10 16 0.00 0.00
10:53 am 10:53 Sunny 41 5 16 -8.9 36 36 WNW 8 13 30.37 1029 10 16 0.00 0.00
11:53 am 11:53 Sunny 44 6.7 12 -11.1 27 27 WNW 8 13 30.37 1028 10 16 0.00 0.00
12:53 pm 12:53 Sunny 45 7.2 10 -12.2 24 24 NW 10 17 30.36 1028 10 16 0.00 0.00
1:53 pm 13:53 Sunny 47 8.3 11 -11.7 23 23 VRB 7 11 30.37 1028 10 16 0.00 0.00
2:53 pm 14:53 Sunny 47 8.3 8 -13.3 20 20 W 7 11 30.37 1028 10 16 0.00 0.00
3:53 pm 15:53 Sunny 47 8.3 5 -15 18 18 NW 3 6 30.38 1029 10 16 0.00 0.00
4:53 pm 16:53 Sunny 47 8.3 7 -13.9 19 19 Calm 30.39 1029 10 16 0.00 0.00
5:53 pm 17:53 Clear 41 5 10 -12.2 28 28 Calm 30.41 1030 10 16 0.00 0.00
6:53 pm 18:53 Clear 35 1.7 16 -8.9 46 46 Calm 30.43 1031 10 16 0.00 0.00
7:53 pm 19:53 Clear 31 -0.6 17 -8.3 56 56 Calm 30.45 1031 10 16 0.00 0.00
8:53 pm 20:53 Clear 31 -0.6 15 -9.4 52 52 Calm 30.45 1031 10 16 0.00 0.00
9:53 pm 21:53 Clear 31 -0.6 15 -9.4 52 52 Calm 30.45 1031 10 16 0.00 0.00
10:53 pm 22:53 Clear 32 0 14 -10 47 47 E 6 9 30.44 1031 10 16 0.00 0.00
11:53 pm 23:53 Clear 33 0.6 12 -11.1 42 42 ESE 5 7 30.42 1030 10 16 0.00 0.00

Powered by AerisWeather